TimeCDT,TemperatureF,Dew PointF,Humidity,Sea Level PressureIn,VisibilityMPH,Wind Direction,Wind SpeedMPH,Gust SpeedMPH,PrecipitationIn,Events,Conditions,WindDirDegrees,DateUTC
12:15 AM,71.6,69.8,94,29.98,5.0,Calm,Calm,-,N/A,,Mostly Cloudy,0,2013-10-05 05:15:00
12:35 AM,71.6,69.8,94,29.97,5.0,Calm,Calm,-,N/A,,Mostly Cloudy,0,2013-10-05 05:35:00
12:55 AM,71.6,69.8,94,29.97,5.0,Calm,Calm,-,N/A,,Overcast,0,2013-10-05 05:55:00
1:15 AM,71.6,69.8,94,29.97,5.0,Calm,Calm,-,N/A,,Mostly Cloudy,0,2013-10-05 06:15:00
1:35 AM,71.6,71.6,100,29.97,5.0,Calm,Calm,-,N/A,,Mostly Cloudy,0,2013-10-05 06:35:00
1:55 AM,71.6,71.6,100,29.97,5.0,Calm,Calm,-,N/A,,Overcast,0,2013-10-05 06:55:00
2:15 AM,71.6,71.6,100,29.98,5.0,Calm,Calm,-,N/A,,Mostly Cloudy,0,2013-10-05 07:15:00
2:35 AM,71.6,71.6,100,29.97,5.0,Calm,Calm,-,N/A,,Mostly Cloudy,0,2013-10-05 07:35:00
2:55 AM,71.6,71.6,100,29.97,5.0,Calm,Calm,-,N/A,,Mostly Cloudy,0,2013-10-05 07:55:00
3:15 AM,71.6,71.6,100,29.97,5.0,Calm,Calm,-,N/A,,Scattered Clouds,0,2013-10-05 08:15:00
3:35 AM,71.6,71.6,100,29.96,5.0,Calm,Calm,-,N/A,,Mostly Cloudy,0,2013-10-05 08:35:00
3:55 AM,71.6,71.6,100,29.96,5.0,Calm,Calm,-,N/A,,Overcast,0,2013-10-05 08:55:00
4:15 AM,71.6,71.6,100,29.96,5.0,Calm,Calm,-,N/A,,Overcast,0,2013-10-05 09:15:00
4:35 AM,71.6,71.6,100,29.97,5.0,Calm,Calm,-,N/A,,Overcast,0,2013-10-05 09:35:00
4:55 AM,71.6,71.6,100,29.96,5.0,Calm,Calm,-,N/A,,Overcast,0,2013-10-05 09:55:00
5:15 AM,71.6,71.6,100,29.96,5.0,Calm,Calm,-,N/A,,Mostly Cloudy,0,2013-10-05 10:15:00
5:35 AM,71.6,71.6,100,29.96,3.0,Calm,Calm,-,N/A,,Mostly Cloudy,0,2013-10-05 10:35:00
5:55 AM,73.4,71.6,94,29.96,5.0,Calm,Calm,-,N/A,,Overcast,0,2013-10-05 10:55:00
6:15 AM,73.4,71.6,94,29.96,6.0,Calm,Calm,-,N/A,,Overcast,0,2013-10-05 11:15:00
6:35 AM,73.4,71.6,94,29.96,6.0,Calm,Calm,-,N/A,,Overcast,0,2013-10-05 11:35:00
6:55 AM,73.4,73.4,100,29.95,6.0,Calm,Calm,-,N/A,,Overcast,0,2013-10-05 11:55:00
7:15 AM,73.4,73.4,100,29.96,6.0,Calm,Calm,-,N/A,,Overcast,0,2013-10-05 12:15:00
7:35 AM,73.4,73.4,100,29.96,7.0,Calm,Calm,-,N/A,,Overcast,0,2013-10-05 12:35:00
7:55 AM,75.2,73.4,94,29.97,7.0,SSE,4.6,-,N/A,,Overcast,160,2013-10-05 12:55:00
8:15 AM,75.2,73.4,94,29.97,7.0,SSE,4.6,-,N/A,,Overcast,160,2013-10-05 13:15:00
8:35 AM,75.2,73.4,94,29.97,7.0,SSE,3.5,-,N/A,,Overcast,150,2013-10-05 13:35:00
8:55 AM,75.2,73.4,94,29.97,2.0,SSE,5.8,-,0.02,,Overcast,160,2013-10-05 13:55:00
9:15 AM,77.0,73.4,89,29.98,2.5,SSW,4.6,-,0.01,,Drizzle,200,2013-10-05 14:15:00
9:35 AM,75.2,73.4,94,29.99,2.0,South,5.8,-,0.10,,Light Drizzle,180,2013-10-05 14:35:00
9:55 AM,77.0,73.4,89,29.99,3.0,SW,4.6,-,0.15,,Overcast,220,2013-10-05 14:55:00
10:15 AM,78.8,75.2,89,29.99,6.0,South,4.6,-,N/A,,Mostly Cloudy,190,2013-10-05 15:15:00
10:35 AM,77.0,73.4,89,29.99,7.0,SSW,3.5,-,N/A,,Mostly Cloudy,200,2013-10-05 15:35:00
10:55 AM,78.8,73.4,83,29.99,7.0,SSW,3.5,-,N/A,,Mostly Cloudy,200,2013-10-05 15:55:00
11:15 AM,78.8,75.2,89,29.98,4.0,SSW,3.5,-,0.01,Rain,Light Rain,200,2013-10-05 16:15:00
11:35 AM,80.6,75.2,84,29.97,6.0,SW,4.6,-,0.01,,Haze,220,2013-10-05 16:35:00
11:55 AM,78.8,73.4,83,29.97,6.0,SE,6.9,-,0.01,,Mostly Cloudy,140,2013-10-05 16:55:00
12:15 PM,78.8,75.2,89,29.97,6.0,SSE,4.6,-,N/A,,Light Drizzle,160,2013-10-05 17:15:00
12:35 PM,78.8,73.4,83,29.96,6.0,South,5.8,-,N/A,,Haze,190,2013-10-05 17:35:00
12:55 PM,78.8,73.4,83,29.95,6.0,SSE,6.9,-,N/A,,Overcast,150,2013-10-05 17:55:00
1:15 PM,80.6,75.2,84,29.94,6.0,South,5.8,-,N/A,,Haze,170,2013-10-05 18:15:00
1:35 PM,80.6,75.2,84,29.92,7.0,SSE,8.1,-,N/A,,Scattered Clouds,150,2013-10-05 18:35:00
1:55 PM,82.4,75.2,79,29.90,7.0,SE,6.9,-,N/A,,Clear,130,2013-10-05 18:55:00
2:15 PM,82.4,75.2,79,29.89,7.0,SE,6.9,-,N/A,,Mostly Cloudy,140,2013-10-05 19:15:00
2:35 PM,82.4,75.2,79,29.88,8.0,SSE,5.8,-,N/A,,Mostly Cloudy,150,2013-10-05 19:35:00
2:55 PM,80.6,73.4,79,29.88,3.0,SW,6.9,-,0.01,Rain,Heavy Rain,220,2013-10-05 19:55:00
3:15 PM,78.8,75.2,89,29.88,4.0,Calm,Calm,-,0.10,,Overcast,0,2013-10-05 20:15:00
3:35 PM,78.8,75.2,89,29.87,6.0,SE,4.6,-,0.10,,Mostly Cloudy,140,2013-10-05 20:35:00
3:55 PM,80.6,75.2,84,29.87,7.0,SSE,5.8,-,0.10,,Mostly Cloudy,160,2013-10-05 20:55:00
4:15 PM,80.6,75.2,84,29.88,7.0,Calm,Calm,-,N/A,,Mostly Cloudy,0,2013-10-05 21:15:00
4:35 PM,80.6,71.6,74,29.88,8.0,WSW,8.1,-,N/A,Thunderstorm,Overcast,250,2013-10-05 21:35:00
4:55 PM,80.6,71.6,74,29.89,8.0,West,5.8,-,N/A,,Overcast,260,2013-10-05 21:55:00
5:15 PM,71.6,64.4,78,29.92,10.0,NW,9.2,16.1,N/A,,Overcast,320,2013-10-05 22:15:00
5:35 PM,69.8,62.6,78,29.92,10.0,NW,12.7,21.9,N/A,,Overcast,310,2013-10-05 22:35:00
5:55 PM,69.8,62.6,78,29.93,10.0,Calm,Calm,-,N/A,,Overcast,0,2013-10-05 22:55:00
6:15 PM,68.0,62.6,83,29.93,9.0,Calm,Calm,-,N/A,,Overcast,0,2013-10-05 23:15:00
6:35 PM,66.2,62.6,88,29.94,6.0,North,4.6,-,N/A,,Light Drizzle,10,2013-10-05 23:35:00
6:55 PM,64.4,60.8,88,29.96,10.0,NNE,3.5,-,N/A,,Overcast,20,2013-10-05 23:55:00
7:15 PM,62.6,59.0,88,29.97,10.0,NW,4.6,-,N/A,,Overcast,320,2013-10-06 00:15:00
7:35 PM,62.6,57.2,82,29.98,9.0,North,5.8,-,N/A,Rain,Light Rain,350,2013-10-06 00:35:00
7:55 PM,59.0,57.2,94,30.00,2.0,NW,5.8,-,0.08,Rain,Light Rain,320,2013-10-06 00:55:00
8:15 PM,59.0,57.2,94,30.00,8.0,Calm,Calm,-,N/A,,Overcast,0,2013-10-06 01:15:00
8:35 PM,59.0,57.2,94,30.01,10.0,NW,4.6,-,N/A,,Overcast,320,2013-10-06 01:35:00
8:55 PM,59.0,57.2,94,29.99,10.0,Calm,Calm,-,N/A,,Overcast,0,2013-10-06 01:55:00
9:15 PM,57.2,55.4,94,29.99,10.0,North,3.5,-,N/A,,Mostly Cloudy,350,2013-10-06 02:15:00
9:35 PM,57.2,53.6,88,30.03,10.0,NW,3.5,-,N/A,,Scattered Clouds,320,2013-10-06 02:35:00
9:55 PM,57.2,53.6,88,30.05,10.0,WSW,4.6,-,N/A,Thunderstorm,Mostly Cloudy,250,2013-10-06 02:55:00
10:15 PM,55.4,53.6,94,30.02,2.5,Calm,Calm,-,0.12,Rain-Thunderstorm,Heavy Rain,0,2013-10-06 03:15:00
10:35 PM,55.4,53.6,94,30.03,4.0,NW,3.5,-,0.19,Rain,Light Rain,320,2013-10-06 03:35:00
10:55 PM,55.4,53.6,94,30.00,5.0,Calm,Calm,-,0.22,Rain,Light Rain,0,2013-10-06 03:55:00
11:15 PM,55.4,53.6,94,30.00,10.0,West,3.5,-,N/A,,Light Drizzle,280,2013-10-06 04:15:00
11:35 PM,55.4,51.8,88,30.01,10.0,Calm,Calm,-,N/A,,Mostly Cloudy,0,2013-10-06 04:35:00
11:55 PM,55.4,53.6,94,30.00,7.0,West,3.5,-,N/A,Rain,Light Rain,280,2013-10-06 04:55:00